UFO 8 (USA 138) (25258 NORAD) Tracking and Keplerian Element Data

This shows tracking and keplerian element data for the satellite.

Feedback or suggestion? Click here.




ElementValue
Catalog25258
NameUFO 8 (USA 138)
Epoch Orbit9280
Epoch Day161.67535488
Epoch Year2023
RAAN28.4207
Inclination9.8219
Eccentricity0.000148
Argument of Perigee94.0022
Mean Anonmoly279.0237
Mean Motion1.00391277
Decay Rate-1.58E-06
L11 25258U 98016A 23161.67535488 -.00000158 00000+0 00000+0 0 9998
L22 25258 9.8219 28.4207 0001480 94.0022 279.0237 1.00391277 92805



Live tracking and technical data element details for UFO 8 (USA 138) (NORAD 25258). UFO 8 (USA 138) can be tracked NOW for your location showing map with azimuth and elevation plus other details from your city location.







IsCatalogInMostPopularTable: catalog: 25258, numindb: 308
Update: records affected: 1



GetName: 25258 UFO 8 (USA 138)

Hit Count: updated at: Thu, 15 May 2025 18:38:42 GMT